Regional Weather Roundup
Issued by NWS

Home | Current Version | Previous Version | Text Only | Print | Product List | Glossary On
Versions: 1 2 3 4 5 6 7 8 9 10 11 12 13 14 15 16 17 18 19 20 21 22 23 24 25 26 27 28
000
ASUS45 KBOU 281110
RWRCO

WEATHER ROUNDUP FOR COLORADO
NATIONAL WEATHER SERVICE DENVER/BOULDER CO
500 AM MDT WED SEP 28 2016

NOTE: "FAIR" INDICATES FEW OR NO CLOUDS BELOW 12000 FEET WITH NO
SIGNIFICANT WEATHER AND/OR OBSTRUCTIONS TO VISIBILITY.

COZ001>005-013-030-031-281200-
...NORTHWEST COLORADO...

CITY           SKY/WX    TMP DP  RH WIND       PRES   REMARKS
CRAIG          FAIR      34  31  88 CALM      30.32R
HAYDEN         FAIR      45  30  57 E10       30.33R
MEEKER         FAIR      39  36  89 N3        30.32R
MOUNT WERNER   NOT AVBL
STEAMBOAT SPGS FAIR      38  32  78 CALM      30.35R
WALDEN           N/A     30  23  74 SE3       30.44S
$$

COZ006>008-011-281200-
...WEST CENTRAL VALLEYS...

CITY           SKY/WX    TMP DP  RH WIND       PRES   REMARKS
GRAND JUNCTION FAIR      53  37  54 SE12      30.20R
MONTROSE       FAIR      46  36  68 SE7       30.29R
EAGLE          FAIR      39  30  70 CALM      30.39R
RIFLE          FAIR      46  39  76 N5        30.28R
DELTA          FAIR      48  37  65 NE7       30.26R
NUCLA          FAIR      48  36  61 E7        30.31R
$$

COZ017>023-064>068-281200-
...SOUTHWEST COLORADO...

CITY           SKY/WX    TMP DP  RH WIND       PRES   REMARKS
DURANGO        FAIR      41  33  73 CALM      30.33R
CORTEZ         FAIR      42  36  79 NE7       30.29R
PAGOSA SPRINGS FAIR      39  30  70 CALM      30.39S
TELLURIDE      FAIR      44  35  70 SE9       30.47S
WOLF CREEK PAS FAIR      43  27  52 MISG      30.65S
$$

COZ009-010-012-014-032>034-037-058>063-281200-
...CENTRAL COLORADO...

CITY           SKY/WX    TMP DP  RH WIND       PRES   REMARKS
ASPEN          FAIR      40  31  70 S7        30.39R
BUENA VISTA    FAIR      43  27  52 N6        30.43R
COPPER MTN     FAIR      46  23  39 S10       30.64S
BERTHOUD PASS  FAIR      37  25  60 E17G24    30.68R
COTTONWOOD PAS FAIR      54  23  30 W6        30.53R
GUNNISON       FAIR      36  28  75 CALM      30.43S
KREMMLING      FAIR      32  23  69 CALM      30.43R
LEADVILLE      FAIR      33  22  63 CALM      30.52R
MONARCH PASS   FAIR      43  25  49 E7        30.74S
SALIDA         FAIR      45  28  53 NW3       30.49R
SUNLIGHT       FAIR      46  32  57 E5        30.58S
WILKERSON PASS FAIR      45  14  29 E6        30.64R
$$

COZ069>075-281200-
...SAN LUIS VALLEY/SANGRE DE CRISTO MOUNTAINS...

CITY           SKY/WX    TMP DP  RH WIND       PRES   REMARKS
ALAMOSA        FAIR      32  23  69 CALM      30.39R
LA VETA PASS   FAIR      46  25  42 MISG      30.53R
SAGUACHE       NOT AVBL
$$

COZ035-036-038>040-281200-
...NORTHERN COLORADO FRONT RANGE...

CITY           SKY/WX    TMP DP  RH WIND       PRES   REMARKS
DENVER INTL AP FAIR      50  29  44 SW9       30.26R
DMNS CITY PARK   N/A     51  33  50 S5G10     30.27R
AURORA         CLEAR     51  30  43 SW7       30.28R
FRONT RANGE AP NOT AVBL
ERIE MUNI ARPT FAIR      43  33  68 CALM      30.26R
BOULDER MUN AP FAIR      54  32  43 W3        30.26R
CENTENNIAL     FAIR      53  28  38 W8        30.29R
BROOMFIELD     FAIR      61  28  29 NW5       30.28R
FORT COLLINS   FAIR      50  34  53 N7        30.26R
LONGMONT       FAIR      48  33  56 NW3       30.27S
$$

COZ041-046-047-076>085-087-088-281200-
...PIKES PEAK/PALMER DIVIDE AND SOUTHERN FOOTHILLS...

CITY           SKY/WX    TMP DP  RH WIND       PRES   REMARKS
COLO. SPRINGS  FAIR      54  26  34 N12       30.30R
A. F. ACADEMY  FAIR      43  26  51 N8        30.32R
SCHRIEVER AFB  NOT AVBL
ELLICOTT       NOT AVBL
FALCON         FAIR      56  24  28 N10       30.34S
FORT CARSON    FAIR      52  29  41 NW9       30.26R
LIMON          FAIR      42  25  50 CALM      30.25R
MONUMENT HILL  FAIR      43  27  52 W8        30.37R
TRINIDAD       FAIR      51  30  44 W16       30.26R
$$

COZ042>045-048>051-090-091-281200-
...NORTHEAST COLORADO...

CITY           SKY/WX    TMP DP  RH WIND       PRES   REMARKS
GREELEY ARPT   FAIR      45  34  65 N7        30.24F
AKRON          FAIR      50  30  46 W9        30.22R
BURLINGTON     FAIR      47  36  65 W8        30.18R
WRAY           NOT AVBL
STERLING       FAIR      41  36  81 S5        30.19R
HOLYOKE        FAIR      48  37  66 W6        30.18R
FORT MORGAN    FAIR      42  31  65 N5        30.22R
$$

COZ086-089-092>099-281200-
...SOUTHEAST COLORADO...

CITY           SKY/WX    TMP DP  RH WIND       PRES   REMARKS
PUEBLO         FAIR      55  31  39 W8        30.20R
LA JUNTA       FAIR      51  34  52 W12       30.17R
LAMAR          FAIR      43  33  68 S9        30.13R
SPRINGFIELD    NOT AVBL
$$




USA.gov is the U.S. government's official web portal to all federal, state and local government web resources and services.